Location: ?
(35.4214°N, 139.3011°E)
Time: 19:34:08
(UTC+00:00)

N. Korean satellite - Visible Passes

Search period start: 28 September 2020 00:00
Search period end: 08 October 2020 00:00
Orbit: 455 x 503 km, 97.2° (Epoch: 28 September)

Date Brightness Start Highest point End Pass type
(mag) Time Alt. Az. Time Alt. Az. Time Alt. Az.
28 Sep 8.4 19:47:22 10° NNE 19:50:41 35° E 19:53:56 10° SSE visible
29 Sep 9.8 19:22:17 10° NE 19:24:31 16° E 19:26:44 10° SE visible
01 Oct 7.2 20:02:23 10° NNE 20:05:55 59° E 20:09:21 10° S visible
02 Oct 9.1 19:36:49 10° NE 19:39:48 25° E 19:42:42 10° SSE visible
03 Oct 10.2 19:12:30 10° ENE 19:13:34 11° E 19:14:38 10° ESE visible
05 Oct 8.0 19:51:38 10° NNE 19:54:59 40° E 19:58:16 10° S visible
06 Oct 9.7 19:26:22 10° NE 19:28:48 18° E 19:31:13 10° SE visible
